Valdosta Regional, GA

8:02 AM EST on January 21, 2018 (GMT -0500)
Valdosta Regional

Weather History for KVLD - January, 2014

Change the Weather History Date:

Friday, January 31, 2014

  Actual Average Record
Temperature  
Mean Temperature 52 °F 51 °F  
Max Temperature 64 °F 63 °F 74 °F (2017)
Min Temperature 40 °F 39 °F 34 °F (2015)
Degree Days  
Heating Degree Days 13 14  
Month to date heating degree days 492 459  
Since 1 July heating degree days 856 1069  
Growing Degree Days 1 (Base 50)    
Moisture  
Dew Point 40 °F    
Average Humidity 74    
Maximum Humidity 92    
Minimum Humidity 56    
Precipitation  
Precipitation T in 0.13 in 0.00 in (2018)
Month to date precipitation 2.62 4.57  
Year to date precipitation 2.62 4.57  
Sea Level Pressure  
Sea Level Pressure 30.20 in    
Wind  
Wind Speed 4 mph (NE)    
Max Wind Speed 9 mph    
Max Gust Speed 12 mph    
Visibility 8 miles    
Events Fog , Rain    
T = Trace of Precipitation, MM = Missing Value Source: NWS Daily Summary

Daily Weather History Graph

Daily Weather History Graph

Search for Another Location

Airport or City:

Trip Planner

Search our weather history database for the weather conditions in past years. The results will help you decide how hot, cold, wet, or windy it might be!

Date:

Astronomy

Jan. 31, 2014 Rise Set
Actual Time 7:25 AM EST 6:08 PM EST
Civil Twilight 6:59 AM EST 6:33 PM EST
Nautical Twilight 6:31 AM EST 7:02 PM EST
Astronomical Twilight 6:02 AM EST 7:31 PM EST
Moon 7:41 AM EST (1/31) 7:22 PM EST (1/31)
Length of Visible Light 11h 33m
Length of Day
10h 43m
New Moon, 1% of the Moon is Illuminated
Jan 31
New Moon
Feb 6
First Quarter
Feb 14
Full
Feb 22
Last Quarter
Mar 1
New

Hourly Weather History & Observations

Time (EST) Temp. Windchill Dew Point Humidity Pressure Visibility Wind Dir Wind Speed Gust Speed Precip Events Conditions
12:53 AM 41.0 °F 38.0 °F 30.0 °F 65% 30.21 in 10.0 mi NNE 4.6 mph - N/A   Overcast
1:53 AM 41.0 °F 36.4 °F 30.9 °F 67% 30.19 in 10.0 mi NE 6.9 mph - N/A   Overcast
2:53 AM 41.0 °F 37.1 °F 32.0 °F 70% 30.21 in 10.0 mi ENE 5.8 mph - N/A   Overcast
3:53 AM 39.9 °F 35.1 °F 33.1 °F 77% 30.21 in 10.0 mi NNE 6.9 mph - N/A   Overcast
4:47 AM 39.2 °F 35.0 °F 33.8 °F 81% 30.18 in 10.0 mi NNE 5.8 mph - N/A   Overcast
4:53 AM 39.9 °F 36.7 °F 34.0 °F 79% 30.21 in 10.0 mi NNE 4.6 mph - N/A   Overcast
5:08 AM 39.2 °F 35.0 °F 33.8 °F 81% 30.19 in 10.0 mi NE 5.8 mph - N/A   Overcast
5:51 AM 39.2 °F 37.0 °F 33.8 °F 81% 30.18 in 10.0 mi East 3.5 mph - N/A   Overcast
5:53 AM 39.9 °F - 34.0 °F 79% 30.21 in 10.0 mi Calm Calm - N/A   Overcast
6:53 AM 39.9 °F 37.8 °F 35.1 °F 83% 30.22 in 10.0 mi ENE 3.5 mph - N/A   Overcast
7:34 AM 39.2 °F 35.9 °F 35.6 °F 87% 30.19 in 3.0 mi East 4.6 mph - N/A   Overcast
7:38 AM 39.2 °F - 35.6 °F 87% 30.19 in 1.8 mi Calm Calm - N/A   Overcast
7:53 AM 39.9 °F 37.8 °F 37.0 °F 89% 30.23 in 1.0 mi NE 3.5 mph - N/A   Overcast
8:04 AM 39.2 °F 37.0 °F 37.4 °F 93% 30.20 in 0.8 mi NE 3.5 mph - N/A   Overcast
8:21 AM 39.2 °F 35.9 °F 37.4 °F 93% 30.20 in 0.2 mi NE 4.6 mph - N/A Fog Fog
8:53 AM 41.0 °F 39.0 °F 37.9 °F 89% 30.23 in 0.5 mi NE 3.5 mph - N/A Fog Fog
9:28 AM 41.0 °F 36.4 °F 37.4 °F 87% 30.22 in 1.2 mi NNE 6.9 mph - N/A   Overcast
9:53 AM 42.1 °F 38.4 °F 39.0 °F 89% 30.26 in 1.2 mi NE 5.8 mph - N/A   Overcast
10:49 AM 44.6 °F 41.4 °F 39.2 °F 81% 30.24 in 2.5 mi NNE 5.8 mph - N/A   Overcast
10:53 AM 44.1 °F 41.5 °F 39.9 °F 85% 30.27 in 2.5 mi NE 4.6 mph - N/A   Overcast
11:00 AM 44.6 °F 41.4 °F 39.2 °F 81% 30.24 in 5.0 mi NNE 5.8 mph - N/A   Haze
11:53 AM 46.0 °F 43.1 °F 41.0 °F 83% 30.25 in 10.0 mi East 5.8 mph - N/A   Overcast
12:11 PM 48.2 °F - 42.8 °F 82% 30.21 in 10.0 mi Variable 4.6 mph - N/A   Overcast
12:53 PM 52.0 °F - 43.0 °F 71% 30.22 in 10.0 mi NNE 5.8 mph - N/A   Mostly Cloudy
1:00 PM 51.8 °F - 42.8 °F 71% 30.18 in 10.0 mi Calm Calm - N/A   Scattered Clouds
1:53 PM 57.9 °F - 45.0 °F 62% 30.18 in 10.0 mi Calm Calm - N/A   Clear
2:53 PM 62.1 °F - 46.9 °F 58% 30.16 in 10.0 mi Calm Calm - N/A   Clear
3:53 PM 63.0 °F - 48.0 °F 58% 30.15 in 10.0 mi NNE 8.1 mph - N/A   Partly Cloudy
4:53 PM 63.0 °F - 48.0 °F 58% 30.16 in 10.0 mi North 5.8 mph - N/A   Clear
5:53 PM 60.1 °F - 48.0 °F 64% 30.17 in 10.0 mi NE 4.6 mph - N/A   Clear
6:53 PM 54.0 °F - 46.9 °F 77% 30.17 in 10.0 mi Calm Calm - N/A   Clear
7:53 PM 54.0 °F - 48.0 °F 80% 30.17 in 10.0 mi NE 4.6 mph - N/A   Clear
8:53 PM 53.1 °F - 46.9 °F 80% 30.17 in 10.0 mi NE 4.6 mph - N/A   Clear
9:53 PM 53.1 °F - 46.9 °F 80% 30.18 in 10.0 mi East 3.5 mph - N/A   Overcast
10:53 PM 54.0 °F - 46.9 °F 77% 30.17 in 10.0 mi Calm Calm - N/A   Overcast
11:53 PM 54.0 °F - 48.0 °F 80% 30.17 in 10.0 mi SSE 4.6 mph - 0.00 in Rain Light Rain